Weather History for CYHE - September, 2013

Change the Weather History Date:

Saturday, September 14, 2013

  Actual Average Record
Temperature  
Mean Temperature 70 °F -  
Max Temperature 83 °F 64 °F 86 °F (2014)
Min Temperature 56 °F 47 °F 48 °F (2006)
Cooling Degree Days 4    
Growing Degree Days 20 (Base 50)    
Moisture  
Dew Point 61 °F    
Average Humidity 81    
Maximum Humidity 100    
Minimum Humidity 42    
Precipitation  
Precipitation 0.00 in 0.19 in - ()
Sea Level Pressure  
Sea Level Pressure 29.83 in    
Wind  
Wind Speed 6 mph ()    
Max Wind Speed 14 mph    
Max Gust Speed 18 mph    
Visibility 7.4 miles    
Events      
Averages and records for this station are not official NWS values.
T = Trace of Precipitation, MM = Missing Value Source: Averaged Metar Reports

Daily Weather History Graph

Daily Weather History Graph

Search for Another Location

Airport or City:

Trip Planner

Search our weather history database for the weather conditions in past years. The results will help you decide how hot, cold, wet, or windy it might be!

Date:

Astronomy

Sep. 14, 2013 Rise Set
Actual Time 6:41 AM PDT 7:20 PM PDT
Civil Twilight 6:09 AM PDT 7:52 PM PDT
Nautical Twilight 5:30 AM PDT 8:30 PM PDT
Astronomical Twilight 4:50 AM PDT 9:10 PM PDT
Moon 4:25 PM PDT (9/14) 12:56 AM PDT (9/14)
Length of Visible Light 13h 43m
Length of Day
12h 39m
Waxing Gibbous, 73% of the Moon is Illuminated
Sep 14
Waxing Gibbous
Sep 19
Full
Sep 26
Last Quarter
Oct 4
New
Oct 11
First Quarter

Hourly Weather History & Observations

Time (PDT) Temp. Heat Index Dew Point Humidity Pressure Visibility Wind Dir Wind Speed Gust Speed Precip Events Conditions
12:00 AM 60.8 °F - 59.0 °F 94% 29.90 in 4.0 mi WSW 4.6 mph - N/A   Clear
1:00 AM 59.0 °F - 59.0 °F 100% 29.90 in 3.0 mi WSW 2.3 mph - N/A   Clear
1:10 AM 59.0 °F - 57.2 °F 94% 29.90 in 2.5 mi Calm Calm - N/A   Clear
2:00 AM 58 °F - 57 °F 96% 29.89 in - Calm Calm - -  
2:00 AM 59.0 °F - 57.2 °F 94% 29.89 in 2.2 mi Calm Calm - N/A   Clear
2:47 AM 59.0 °F - 59.0 °F 100% 29.88 in 3.0 mi East 5.8 mph - N/A   Partly Cloudy
3:00 AM 60.8 °F - 60.8 °F 100% 29.88 in 5.0 mi East 6.9 mph - N/A   Clear
3:47 AM 60.8 °F - 60.8 °F 100% 29.88 in 6.0 mi ENE 6.9 mph - N/A   Clear
4:00 AM 62.6 °F - 60.8 °F 94% 29.88 in 8.0 mi East 8.1 mph - N/A   Clear
4:49 AM 60.8 °F - 59.0 °F 94% 29.88 in 5.0 mi East 11.5 mph - N/A   Clear
4:56 AM 60.8 °F - 59.0 °F 94% 29.88 in 6.0 mi East 9.2 mph - N/A   Clear
5:00 AM 61 °F - 59 °F 92% 29.88 in - East 8.1 mph - -  
5:00 AM 60.8 °F - 59.0 °F 94% 29.88 in 8.0 mi East 8.1 mph - N/A   Clear
6:00 AM 60.8 °F - 59.0 °F 94% 29.88 in 8.0 mi East 9.2 mph - N/A   Clear
7:00 AM 60.8 °F - 59.0 °F 94% 29.89 in 9.0 mi East 12.7 mph - N/A   Clear
8:00 AM 62 °F - 59 °F 87% 29.88 in - East 12.7 mph - -  
8:00 AM 62.6 °F - 59.0 °F 88% 29.89 in 9.0 mi East 12.7 mph - N/A   Clear
9:00 AM 66.2 °F - 59.0 °F 78% 29.88 in 9.0 mi East 12.7 mph 18.4 mph N/A   Clear
10:00 AM 69.8 °F - 60.8 °F 73% 29.87 in 9.0 mi East 13.8 mph - N/A   Clear
11:00 AM 75 °F - 62 °F 56% 29.85 in - ENE 6.9 mph - -  
11:00 AM 75.2 °F - 60.8 °F 61% 29.85 in 9.0 mi East 6.9 mph - N/A   Clear
12:00 PM 78.8 °F - 60.8 °F 54% 29.82 in 9.0 mi East 6.9 mph - N/A   Clear
1:00 PM 82.4 °F 82.0 °F 57.2 °F 42% 29.80 in 9.0 mi East 4.6 mph - N/A   Clear
2:00 PM 78 °F - 63 °F 51% 29.77 in - WSW 11.5 mph - -  
2:00 PM 78.8 °F - 62.6 °F 57% 29.78 in 9.0 mi West 13.8 mph - N/A   Clear
3:00 PM 78.8 °F - 64.4 °F 61% 29.77 in 9.0 mi West 13.8 mph - N/A   Clear
4:00 PM 78.8 °F - 64.4 °F 61% 29.75 in 9.0 mi West 12.7 mph - N/A   Clear
5:00 PM 78 °F - 65 °F 56% 29.73 in - West 6.9 mph - -  
5:00 PM 78.8 °F - 64.4 °F 61% 29.74 in 9.0 mi WNW 8.1 mph - N/A   Clear
6:00 PM 77.0 °F - 66.2 °F 69% 29.74 in 9.0 mi West 6.9 mph - N/A   Clear
7:00 PM 71.6 °F - 64.4 °F 78% 29.75 in 9.0 mi WSW 5.8 mph - N/A   Clear
8:00 PM 69 °F - 65 °F 83% 29.75 in - North 1.2 mph - -  
8:00 PM 69.8 °F - 64.4 °F 83% 29.75 in 9.0 mi Variable 2.3 mph - N/A   Clear
9:00 PM 66.2 °F - 64.4 °F 94% 29.76 in 9.0 mi East 2.3 mph - N/A   Clear
10:00 PM 69.8 °F - 64.4 °F 83% 29.76 in 9.0 mi East 4.6 mph - N/A   Clear
11:00 PM 68 °F - 64 °F 81% 29.76 in - ENE 5.8 mph - -  
11:00 PM 68.0 °F - 64.4 °F 88% 29.77 in 9.0 mi East 6.9 mph - N/A   Clear